DW0226 Weather Reports


Display with metric or nautical units.
time (UTC)temp
F
wind
direction
speed
MPH
gust
MPH
rain 1hr
in
rain 24hr
in
rain mn
in
humidity
%
barometer
mb
20260509180026 74 176 5.0 12.0 0.00 0.00 0.00 55 1008.5
20260509175054 74 172 3.0 12.0 0.00 0.00 0.00 57 1008.5
20260509174019 73 167 5.0 11.0 0.00 0.00 0.00 59 1008.8
20260509173030 72 155 4.0 10.0 0.00 0.00 0.00 59 1008.8
20260509172024 71 207 4.0 12.0 0.00 0.00 0.00 62 1008.8
20260509171030 71 228 3.0 9.0 0.00 0.00 0.00 60 1009.1
20260509170100 72 190 6.0 9.0 0.00 0.00 0.00 60 1009.1
20260509165022 71 216 2.0 12.0 0.00 0.00 0.00 61 1009.0
20260509164057 72 248 6.0 10.0 0.00 0.00 0.00 58 1009.1
20260509163023 72 246 4.0 12.0 0.00 0.00 0.00 58 1009.1
20260509162050 72 138 5.0 13.0 0.00 0.00 0.00 61 1009.3
20260509161036 71 128 6.0 14.0 0.00 0.00 0.00 62 1009.5
20260509160028 70 193 5.0 9.0 0.00 0.00 0.00 65 1009.8
20260509155034 70 242 5.0 10.0 0.00 0.00 0.00 64 1009.8
20260509154023 69 242 3.0 10.0 0.00 0.00 0.00 67 1010.0
20260509153033 69 175 3.0 10.0 0.00 0.00 0.00 67 1009.8
20260509152024 68 93 4.0 10.0 0.00 0.00 0.00 67 1009.8
20260509151031 68 261 4.0 10.0 0.00 0.00 0.00 69 1010.0
20260509150018 67 242 3.0 9.0 0.00 0.00 0.00 69 1010.1
20260509145027 66 153 2.0 9.0 0.00 0.00 0.00 69 1010.4
20260509144021 66 174 5.0 10.0 0.00 0.00 0.00 70 1010.5
20260509143031 66 150 4.0 9.0 0.00 0.00 0.00 70 1010.5
20260509142021 65 152 3.0 10.0 0.00 0.00 0.00 72 1010.7
20260509141028 65 66 1.0 8.0 0.00 0.00 0.00 73 1010.6
20260509140021 65 132 2.0 5.0 0.00 0.00 0.00 74 1010.9
20260509135030 64 173 4.0 9.0 0.00 0.00 0.00 74 1011.0
20260509134040 64 222 1.0 9.0 0.00 0.00 0.00 75 1011.0
20260509133028 63 191 4.0 12.0 0.00 0.00 0.00 74 1011.0
20260509132020 63 226 4.0 10.0 0.00 0.00 0.00 73 1011.0
20260509131026 63 252 3.0 9.0 0.00 0.00 0.00 76 1011.0
20260509130025 63 262 1.0 7.0 0.00 0.00 0.00 76 1011.1
20260509125028 62 140 2.0 7.0 0.00 0.00 0.00 77 1011.2
20260509124016 62 217 4.0 7.0 0.00 0.00 0.00 77 1011.1
20260509123030 61 144 3.0 7.0 0.00 0.00 0.00 78 1011.2
20260509122020 61 225 1.0 6.0 0.00 0.00 0.00 79 1011.2
20260509121026 60 213 4.0 9.0 0.00 0.00 0.00 79 1011.3
20260509120051 60 153 1.0 7.0 0.00 0.00 0.00 80 1011.1
20260509115020 59 235 4.0 7.0 0.00 0.00 0.00 80 1011.1
20260509114029 59 257 2.0 9.0 0.00 0.00 0.00 81 1011.1
20260509113018 59 257 1.0 5.0 0.00 0.00 0.00 82 1011.1
20260509112022 58 112 1.0 4.0 0.00 0.00 0.00 83 1011.0
20260509111030 57 167 1.0 5.0 0.00 0.00 0.00 84 1011.0
20260509110038 57 163 1.0 4.0 0.00 0.00 0.00 84 1011.1
20260509105024 56 213 0.0 6.0 0.00 0.00 0.00 85 1011.1
20260509104031 56 216 0.0 3.0 0.00 0.00 0.00 85 1011.1
20260509103026 55 159 1.0 4.0 0.00 0.00 0.00 85 1011.2
20260509102033 55 215 2.0 4.0 0.00 0.00 0.00 85 1011.1
20260509101020 55 213 0.0 5.0 0.00 0.00 0.00 85 1011.1
20260509100030 55 242 0.0 4.0 0.00 0.00 0.00 84 1011.0
20260509095021 55 190 1.0 4.0 0.00 0.00 0.00 84 1011.0
20260509094051 56 150 0.0 4.0 0.00 0.00 0.00 84 1011.0
20260509093017 56 150 0.0 6.0 0.00 0.00 0.00 84 1011.0
20260509092026 56 210 0.0 2.0 0.00 0.00 0.00 83 1011.0
20260509091037 56 210 0.0 3.0 0.00 0.00 0.00 83 1010.9
20260509090024 56 221 0.0 2.0 0.00 0.00 0.00 81 1010.8
20260509085054 57 221 0.0 4.0 0.00 0.00 0.00 81 1010.8
20260509084022 57 188 2.0 5.0 0.00 0.00 0.00 81 1010.9
20260509083036 57 168 1.0 3.0 0.00 0.00 0.00 80 1010.8
20260509082021 58 244 0.0 4.0 0.00 0.00 0.00 79 1011.0
20260509081028 58 171 1.0 3.0 0.00 0.00 0.00 78 1010.9
20260509080019 58 193 1.0 6.0 0.00 0.00 0.00 78 1011.1
20260509075030 58 240 0.0 3.0 0.00 0.00 0.00 77 1011.2
20260509074019 58 157 0.0 4.0 0.00 0.00 0.00 76 1011.0
20260509073028 58 143 1.0 3.0 0.00 0.00 0.00 75 1011.2
20260509072020 59 138 1.0 4.0 0.00 0.00 0.00 74 1011.2
20260509071047 58 189 1.0 4.0 0.00 0.00 0.00 74 1011.1
20260509070017 59 94 2.0 3.0 0.00 0.00 0.00 74 1011.1
20260509065028 59 331 1.0 4.0 0.00 0.00 0.00 74 1011.2
20260509064021 59 199 2.0 4.0 0.00 0.00 0.00 73 1011.2
20260509063049 58 178 1.0 4.0 0.00 0.00 0.00 74 1011.5
20260509062019 58 157 2.0 4.0 0.00 0.00 0.00 75 1011.5
20260509061026 58 262 2.0 4.0 0.00 0.00 0.00 75 1011.7
20260509060057 57 213 2.0 5.0 0.00 0.00 0.00 75 1011.7
20260509055046 57 198 0.0 5.0 0.00 0.00 0.00 75 1011.6
20260509054032 56 90 0.0 3.0 0.00 0.00 0.00 75 1011.6
20260509053043 56 152 0.0 5.0 0.00 0.00 0.00 75 1011.6
20260509052029 56 134 1.0 3.0 0.00 0.00 0.00 74 1011.7
20260509051020 57 135 0.0 3.0 0.00 0.00 0.00 73 1011.7
20260509050028 56 148 1.0 3.0 0.00 0.00 0.00 73 1011.7
20260509045037 56 109 0.0 2.0 0.00 0.00 0.00 74 1011.7
20260509044045 57 171 1.0 4.0 0.00 0.00 0.00 73 1011.7
20260509043017 56 187 0.0 2.0 0.00 0.00 0.00 74 1011.8
20260509042047 57 187 0.0 3.0 0.00 0.00 0.00 73 1011.8
20260509041033 57 154 0.0 3.0 0.00 0.00 0.00 73 1012.0
20260509040024 57 135 1.0 3.0 0.00 0.00 0.00 73 1012.1
20260509035051 57 100 0.0 3.0 0.00 0.00 0.00 72 1012.1
20260509034021 57 119 2.0 4.0 0.00 0.00 0.00 73 1012.2
20260509033029 57 121 1.0 5.0 0.00 0.00 0.00 73 1012.3
20260509032035 57 126 1.0 3.0 0.00 0.00 0.00 73 1012.3
20260509031027 57 115 0.0 6.0 0.00 0.00 0.00 72 1012.3
20260509030038 58 103 1.0 3.0 0.00 0.00 0.00 72 1012.2
20260509025025 58 92 1.0 5.0 0.00 0.00 0.00 71 1012.5
20260509024031 58 173 1.0 5.0 0.00 0.00 0.00 70 1012.3
20260509023028 59 93 2.0 5.0 0.00 0.00 0.00 69 1012.3
20260509022037 59 120 2.0 4.0 0.00 0.00 0.00 68 1012.3
20260509021046 59 97 2.0 5.0 0.00 0.00 0.00 67 1012.2
20260509020033 60 94 2.0 6.0 0.00 0.00 0.00 65 1012.0
20260509015024 60 119 2.0 5.0 0.00 0.00 0.00 63 1012.0
20260509014030 61 182 2.0 9.0 0.00 0.00 0.00 61 1012.0
20260509013022 61 103 2.0 6.0 0.00 0.00 0.00 57 1011.7
20260509012028 62 123 1.0 4.0 0.00 0.00 0.00 54 1011.6
20260509011022 62 109 2.0 3.0 0.00 0.00 0.00 53 1011.4
20260509010051 62 182 0.0 3.0 0.00 0.00 0.00 53 1011.3
20260509005016 62 219 0.0 3.0 0.00 0.00 0.00 53 1011.3
20260509004046 63 206 0.0 2.0 0.00 0.00 0.00 52 1011.2
20260509003033 63 252 0.0 3.0 0.00 0.00 0.00 52 1011.4
20260509002024 64 162 0.0 3.0 0.00 0.00 0.00 52 1011.2
20260509001033 65 165 0.0 2.0 0.00 0.00 0.00 49 1011.1
20260509000042 66 178 0.0 3.0 0.00 0.00 0.00 49 1011.0
20260508235028 67 215 0.0 3.0 0.00 0.00 0.00 48 1011.0
20260508234021 68 184 1.0 4.0 0.00 0.00 0.00 46 1011.0
20260508233050 69 202 2.0 5.0 0.00 0.00 0.00 45 1010.8
20260508232019 69 245 3.0 6.0 0.00 0.00 0.00 44 1010.8
20260508231026 70 173 1.0 8.0 0.00 0.00 0.00 44 1010.6
20260508230020 70 256 3.0 9.0 0.00 0.00 0.00 42 1010.6
20260508225026 70 247 2.0 9.0 0.00 0.00 0.00 42 1010.6
20260508224036 70 248 4.0 7.0 0.00 0.00 0.00 41 1010.7
20260508223028 71 221 2.0 9.0 0.00 0.00 0.00 41 1010.8
20260508222017 71 235 3.0 7.0 0.00 0.00 0.00 43 1010.8
20260508221028 70 177 3.0 7.0 0.00 0.00 0.00 42 1010.8
20260508220020 70 130 4.0 6.0 0.00 0.00 0.00 42 1010.7
20260508215031 70 159 2.0 7.0 0.00 0.00 0.00 43 1010.8
20260508214020 70 132 2.0 6.0 0.00 0.00 0.00 41 1010.8
20260508213029 70 173 4.0 7.0 0.00 0.00 0.00 40 1011.0
20260508212036 70 175 3.0 9.0 0.00 0.00 0.00 42 1011.0
20260508211028 69 182 2.0 7.0 0.00 0.00 0.00 42 1011.0
20260508210019 71 120 4.0 9.0 0.00 0.01 0.00 45 1011.0
20260508205026 71 219 3.0 9.0 0.00 0.01 0.00 43 1011.1
20260508204020 71 212 5.0 10.0 0.00 0.01 0.00 39 1011.1
20260508203028 71 161 3.0 9.0 0.00 0.01 0.00 40 1011.2
20260508202035 70 220 3.0 8.0 0.00 0.01 0.00 41 1011.3
20260508201042 70 230 3.0 7.0 0.00 0.01 0.00 44 1011.5
20260508200050 70 151 4.0 8.0 0.00 0.01 0.00 41 1011.5
20260508195023 70 279 3.0 10.0 0.00 0.01 0.00 42 1011.5
20260508194029 70 211 3.0 9.0 0.00 0.01 0.00 40 1011.7
20260508193038 70 210 2.0 9.0 0.00 0.01 0.00 43 1011.8
20260508192024 69 292 2.0 12.0 0.00 0.01 0.00 45 1011.9
20260508191017 70 259 5.0 10.0 0.00 0.01 0.00 40 1011.9
20260508190028 69 210 5.0 7.0 0.00 0.01 0.00 43 1012.2
20260508185033 69 127 3.0 9.0 0.00 0.01 0.00 42 1012.5
20260508184019 68 225 2.0 7.0 0.00 0.01 0.00 42 1012.6
20260508183032 68 164 3.0 11.0 0.00 0.01 0.00 42 1012.5
20260508182022 67 144 6.0 11.0 0.00 0.01 0.00 43 1012.9
20260508181053 68 257 4.0 7.0 0.00 0.01 0.00 43 1013.0